Time,TemperatureF,DewpointF,PressureIn,WindDirection,WindDirectionDegrees,WindSpeedMPH,WindSpeedGustMPH,Humidity,HourlyPrecipIn,Conditions,Clouds,dailyrainin,SolarRadiationWatts/m^2,SoftwareType,DateUTC
2013-07-01 00:00:00,75.0,30.0,30.09,NNE,15,10.0,-999.0,19,-99.99,,,-99.99,0.040000,,2013-07-01 06:00:00,
2013-07-01 02:00:00,73.0,32.0,30.10,North,9,9.0,12.0,22,-99.99,,,-99.99,0.100000,,2013-07-01 08:00:00,
2013-07-01 03:00:00,70.0,34.0,30.12,ENE,76,7.0,-999.0,26,-99.99,,,-99.99,0.000000,,2013-07-01 09:00:00,
2013-07-01 03:53:00,70.0,34.0,30.12,ENE,76,7.0,-999.0,26,-99.99,,,-99.99,0.000000,,2013-07-01 09:53:00,
2013-07-01 04:00:00,67.0,39.0,30.13,East,84,6.0,-999.0,36,-99.99,,,-99.99,0.000000,,2013-07-01 10:00:00,
2013-07-01 04:52:00,67.0,39.0,30.13,East,84,6.0,-999.0,36,-99.99,,,-99.99,0.000000,,2013-07-01 10:52:00,
2013-07-01 05:00:00,62.0,41.0,30.13,NE,38,6.0,12.0,45,-99.99,,,-99.99,0.000000,,2013-07-01 11:00:00,
2013-07-01 05:52:00,62.0,41.0,30.13,NE,38,6.0,12.0,45,-99.99,,,-99.99,0.000000,,2013-07-01 11:52:00,
2013-07-01 06:00:00,65.0,41.0,30.15,NE,36,7.0,9.0,41,-99.99,,,-99.99,0.840000,,2013-07-01 12:00:00,
2013-07-01 06:53:00,65.0,41.0,30.15,NE,36,7.0,9.0,41,-99.99,,,-99.99,0.840000,,2013-07-01 12:53:00,
2013-07-01 07:00:00,68.0,39.0,30.16,NE,38,7.0,11.0,35,-99.99,,,-99.99,45.980000,,2013-07-01 13:00:00,
2013-07-01 07:53:00,68.0,39.0,30.16,NE,38,7.0,11.0,35,-99.99,,,-99.99,45.980000,,2013-07-01 13:53:00,
2013-07-01 08:00:00,72.0,39.0,30.16,ENE,75,4.0,10.0,31,-99.99,,,-99.99,248.199997,,2013-07-01 14:00:00,
2013-07-01 09:00:00,73.0,41.0,30.16,ESE,114,6.0,8.0,31,-99.99,,,-99.99,450.200012,,2013-07-01 15:00:00,
2013-07-01 09:53:00,73.0,41.0,30.16,ESE,114,6.0,8.0,31,-99.99,,,-99.99,450.200012,,2013-07-01 15:53:00,
2013-07-01 10:00:00,77.0,40.0,30.15,SSE,148,6.0,-999.0,27,-99.99,,,-99.99,646.599976,,2013-07-01 16:00:00,
2013-07-01 10:53:00,77.0,40.0,30.15,SSE,148,6.0,-999.0,27,-99.99,,,-99.99,646.599976,,2013-07-01 16:53:00,
2013-07-01 11:00:00,80.0,39.0,30.15,SSE,158,5.0,9.0,23,-99.99,,,-99.99,822.000000,,2013-07-01 17:00:00,
2013-07-01 12:00:00,84.0,40.0,30.14,West,273,4.0,9.0,21,-99.99,,,-99.99,793.700012,,2013-07-01 18:00:00,
2013-07-01 12:53:00,84.0,40.0,30.14,West,273,4.0,9.0,21,-99.99,,,-99.99,793.700012,,2013-07-01 18:53:00,
2013-07-01 13:00:00,84.0,38.0,30.12,West,274,6.0,10.0,19,-99.99,,,-99.99,589.900024,,2013-07-01 19:00:00,
2013-07-01 14:00:00,85.0,37.0,30.11,WSW,251,4.0,13.0,18,-99.99,,,-99.99,570.900024,,2013-07-01 20:00:00,
2013-07-01 14:52:00,85.0,37.0,30.11,WSW,251,4.0,13.0,18,-99.99,,,-99.99,570.900024,,2013-07-01 20:52:00,
2013-07-01 15:00:00,88.0,27.0,30.09,NNW,342,8.0,14.0,11,-99.99,,,-99.99,771.299988,,2013-07-01 21:00:00,
2013-07-01 16:00:00,87.0,30.0,30.08,North,3,10.0,17.0,13,-99.99,,,-99.99,654.400024,,2013-07-01 22:00:00,
2013-07-01 16:53:00,87.0,30.0,30.08,North,3,10.0,17.0,13,-99.99,,,-99.99,654.400024,,2013-07-01 22:53:00,
2013-07-01 17:00:00,84.0,28.0,30.07,North,3,9.0,23.0,13,-99.99,,,-99.99,260.700012,,2013-07-01 23:00:00,
2013-07-01 18:00:00,86.0,28.0,30.06,NNE,17,12.0,18.0,12,-99.99,,,-99.99,500.899994,,2013-07-02 00:00:00,
2013-07-01 19:00:00,86.0,30.0,30.06,North,11,10.0,18.0,13,-99.99,,,-99.99,360.200012,,2013-07-02 01:00:00,
2013-07-01 20:00:00,84.0,28.0,30.07,North,358,9.0,16.0,13,-99.99,,,-99.99,161.500000,,2013-07-02 02:00:00,
2013-07-01 20:53:00,84.0,28.0,30.07,North,358,9.0,16.0,13,-99.99,,,-99.99,161.500000,,2013-07-02 02:53:00,
2013-07-01 21:00:00,77.0,30.0,30.08,North,5,6.0,14.0,18,-99.99,,,-99.99,12.290000,,2013-07-02 03:00:00,
2013-07-01 22:00:00,77.0,26.0,30.09,North,2,8.0,10.0,15,-99.99,,,-99.99,0.240000,,2013-07-02 04:00:00,
2013-07-01 22:53:00,77.0,26.0,30.09,North,2,8.0,10.0,15,-99.99,,,-99.99,0.240000,,2013-07-02 04:53:00,
2013-07-01 23:00:00,75.0,29.0,30.11,North,3,8.0,-999.0,18,-99.99,,,-99.99,0.140000,,2013-07-02 05:00:00,
2013-07-01 23:53:00,75.0,29.0,30.11,North,3,8.0,-999.0,18,-99.99,,,-99.99,0.140000,,2013-07-02 05:53:00,